AO-07 1 07530U 74089B 23152.47827483 -.00000036 00000-0 65144-4 0 9993 2 07530 101.9464 139.0497 0012642 93.4193 22.5305 12.53664570221202 UO-11 1 14781U 84021B 23152.42390355 .00001406 00000-0 17145-3 0 9992 2 14781 97.6565 129.9666 0006590 250.4671 109.5833 14.84856966 91809 AO-16 1 20439U 90005D 23152.54234591 .00000199 00000-0 89501-4 0 9994 2 20439 98.8825 142.3726 0009689 247.3714 226.5675 14.33102736742911 LO-19 1 20442U 90005G 23152.46350419 .00000180 00000-0 82225-4 0 9993 2 20442 98.8429 128.6441 0010913 220.7789 139.2578 14.33256930743093 HUBBLE 1 20580U 90037B 23152.90585373 .00004258 00000-0 22367-3 0 9999 2 20580 28.4707 9.6754 0002230 209.0227 278.5893 15.13157782619407 MET-2/21 1 22782U 93055A 23152.36676314 .00000007 00000-0 -68879-5 0 9993 2 22782 82.5485 97.3221 0023739 88.3449 25.3740 13.83886148502535 AO-27 1 22825U 93061C 23152.11845140 .00000123 00000-0 65005-4 0 9991 2 22825 98.8418 194.7490 0009518 112.5885 247.6305 14.30303628547997 IO-26 1 22826U 93061D 23152.82530572 .00000162 00000-0 79564-4 0 9998 2 22826 98.8362 195.3309 0010132 98.3588 261.8743 14.30664566548612 FO-29 1 24278U 96046B 23152.36742560 -.00000009 00000-0 23527-4 0 9997 2 24278 98.5276 133.0800 0351288 97.9011 266.2147 13.53145255322796 NOAA-15 1 25338U 98030A 23152.37312534 .00000262 00000-0 12715-3 0 9991 2 25338 98.6063 181.6998 0010339 7.2067 352.9260 14.26324574302757 GO-32 1 25397U 98043D 23152.40956007 .00000084 00000-0 56630-4 0 9990 2 25397 98.8680 109.7304 0001662 138.2927 221.8378 14.23874475293086 ISS 1 25544U 98067A 23152.92699441 .00017796 00000-0 31470-3 0 9995 2 25544 51.6406 44.1860 0005452 42.8252 63.8919 15.50385231399422 NO-44 1 26931U 01043C 23152.54401353 .00000143 00000-0 86058-4 0 9996 2 26931 67.0511 237.2160 0007905 274.8630 85.1569 14.30919032131501 SO-50 1 27607U 02058C 23151.85086954 .00001320 00000-0 19827-3 0 9990 2 27607 64.5547 315.0117 0070535 227.9427 131.5662 14.77261391 99818 CO-55 1 27844U 03031E 23152.49694330 .00000371 00000-0 18464-3 0 9990 2 27844 98.6776 159.9839 0010117 164.1229 196.0268 14.22775305 33531 CO-57 1 27848U 03031J 23152.50263714 .00000322 00000-0 16461-3 0 9995 2 27848 98.6812 160.4109 0009704 178.6963 181.4242 14.22286629 33321 RS-22 1 27939U 03042A 23152.52704021 .00001305 00000-0 23441-3 0 9999 2 27939 98.2412 299.3725 0012549 180.4027 267.4218 14.68352840 52242 NOAA-18 1 28654U 05018A 23152.48735084 .00000239 00000-0 15181-3 0 9994 2 28654 98.9095 226.9533 0015239 67.1706 293.1074 14.12944338929357 CO-58 1 28895U 05043F 23152.30110900 .00001658 00000-0 31349-3 0 9994 2 28895 98.1515 284.4847 0017478 120.7785 239.5141 14.65615895938710 CO-65 1 32785U 08021C 23152.50612828 .00003572 00000-0 35574-3 0 9995 2 32785 97.7042 118.7990 0013078 148.7762 211.4237 14.92175524818552 AAUSAT2 1 32788U 08021F 23151.91411650 .00008555 00000-0 62962-3 0 9999 2 32788 97.5578 131.7012 0009805 58.4651 301.7531 15.03575289820664 DO-64 1 32789U 08021G 23152.53013433 .00055310 00000-0 16197-2 0 9995 2 32789 97.3033 174.1415 0008546 158.5402 201.6202 15.35002154825089 CO-66 1 32791U 08021J 23152.15936200 .00005040 00000-0 44741-3 0 9994 2 32791 97.6549 123.7353 0013902 103.0799 257.1975 14.96532113819348 RS-30 1 32953U 08025A 23152.51052586 .00000049 00000-0 27896-3 0 9990 2 32953 82.5019 326.8485 0019049 216.6229 143.3549 12.43124508681707 PRISM 1 33493U 09002B 23151.97961904 .00010293 00000-0 70512-3 0 9993 2 33493 98.2458 165.3663 0017998 101.0895 259.2355 15.06147847781301 NOAA-19 1 33591U 09005A 23152.52979522 .00000206 00000-0 13575-3 0 9991 2 33591 99.1003 198.2058 0012807 288.0802 71.8974 14.12761994737731 SRMSAT 1 37841U 11058D 23152.44323794 .00000450 00000-0 10180-3 0 9999 2 37841 19.9730 305.2159 0011734 218.7237 177.0581 14.10896994600584 HRBE 1 37855U 11061F 23152.40392171 .00029855 00000-0 95102-3 0 9996 2 37855 101.7055 105.2517 0121989 88.6508 272.8686 15.25520228634155 RS-40 1 38735U 12041C 23152.45318576 .00000028 00000-0 13044-3 0 9991 2 38735 82.4788 47.9017 0017214 334.7932 25.2306 12.42594026491769 ZACUBE-1 1 39417U 13066B 23152.46401653 .00003893 00000-0 45204-3 0 9993 2 39417 97.6840 114.6829 0054354 341.1399 18.7802 14.84887280514862 Delfi-N3xt 1 39428U 13066N 23152.34236568 .00003244 00000-0 47264-3 0 9991 2 39428 97.8339 77.7416 0109245 239.9211 119.1130 14.72515163509800 GOMX-1 1 39430U 13066Q 23152.51281241 .00002683 00000-0 47017-3 0 9993 2 39430 97.7823 44.5654 0146423 23.5700 337.2122 14.61764022507243 LO-74 1 39440U 13066AA 23152.40958375 .00003522 00000-0 45674-3 0 9991 2 39440 97.7718 101.6785 0077293 78.8027 282.1861 14.79307729511823 AO-73 1 39444U 13066AE 23152.44471458 .00005236 00000-0 58243-3 0 9991 2 39444 97.6703 117.1969 0052103 326.5764 33.2167 14.86568533513893 SPROUT 1 39770U 14029E 23152.57109058 .00021210 00000-0 16324-2 0 9994 2 39770 97.9824 279.3491 0006150 355.2324 4.8840 15.01683458489813 DTUSAT-2 1 40030U 14033W 23152.53196562 .00004354 00000-0 42456-3 0 9998 2 40030 97.9674 92.8714 0010542 353.6684 6.4399 14.92953606486171 EO-80 1 40032U 14033Y 23152.37373588 .00004720 00000-0 45980-3 0 9999 2 40032 97.9670 92.7286 0010452 354.8844 5.2266 14.92952861485613 HODOYOSHI-1 1 40299U 14070B 23152.44700447 .00011239 00000-0 35019-3 0 9996 2 40299 97.1952 215.5228 0009580 342.0982 17.9922 15.33376208476379 FIREBIRD FU3 1 40377U 15003B 23152.41025050 .00164350 00000-0 13238-2 0 9998 2 40377 99.0748 106.7647 0038159 256.1180 103.5830 15.69424408462173 FIREBIRD FU4 1 40378U 15003C 23152.41432702 .00161089 00000-0 13013-2 0 9992 2 40378 99.0764 107.0933 0038417 255.4755 104.2239 15.69350590462183 GRIFEX 1 40379U 15003D 23152.38691939 .00040121 00000-0 89534-3 0 9993 2 40379 99.0782 85.3445 0081037 326.9221 32.6965 15.39972976460956 XW-2C 1 40906U 15049H 23152.55259605 .00011662 00000-0 45424-3 0 9996 2 40906 97.4932 159.6423 0010863 207.2124 152.8547 15.26084734426016 XW-2D 1 40907U 15049J 23152.52544426 .00013895 00000-0 51105-3 0 9995 2 40907 97.4911 160.1056 0010205 198.8852 161.2010 15.27950321426098 LILACSAT-2 1 40908U 15049K 23152.88116317 .00006008 00000-0 28523-3 0 9995 2 40908 97.5241 155.9832 0012399 238.9168 121.0850 15.19558076425471 XW-2E 1 40909U 15049L 23152.83211321 .00029611 00000-0 80275-3 0 9999 2 40909 97.4524 166.5034 0009985 162.4320 197.7271 15.37544703426789 XW-2F 1 40910U 15049M 23152.56281003 .00027710 00000-0 76738-3 0 9992 2 40910 97.4619 165.4639 0010643 166.7125 193.4401 15.36889714426486 XW-2B 1 40911U 15049N 23152.45368145 .00014021 00000-0 51911-3 0 9991 2 40911 97.4891 160.4803 0010123 200.9300 159.1526 15.27730267425963 DCBB 1 40912U 15049P 23152.83995978 .00039554 00000-0 90056-3 0 9995 2 40912 97.4170 170.3308 0011350 131.6630 228.5591 15.42785523427241 IO-86 1 40931U 15052B 23151.55009665 .00001097 00000-0 62525-4 0 9999 2 40931 5.9984 205.2696 0012576 58.1371 301.9979 14.77223057414892 ATHENOXAT-1 1 41168U 15077C 23152.86426860 .00144448 00000-0 19758-2 0 9990 2 41168 14.9882 341.5049 0001591 155.7887 204.2514 15.55492281413926 ChubuSat-2 1 41338U 16012B 23152.14662587 .00003739 00000-0 25843-3 0 9998 2 41338 31.0036 320.3526 0012440 18.1248 341.9831 15.03885655399961 ChubuSat-3 1 41339U 16012C 23152.53814615 .00003429 00000-0 23740-3 0 9993 2 41339 31.0100 314.9346 0012303 29.3337 330.7988 15.03754674400029 Horyu-4 1 41340U 16012D 23152.43486983 .00007043 00000-0 44392-3 0 9999 2 41340 31.0042 284.6316 0011750 84.2245 275.9731 15.07701349400345 e-st@r-II 1 41459U 16025D 23152.77825533 .00034858 00000-0 10267-2 0 9996 2 41459 98.1873 352.5274 0109530 152.5424 208.1660 15.29130013390549 AAUSAT4 1 41460U 16025E 23152.30665086 .00116490 00000-0 16640-2 0 9996 2 41460 98.1618 4.0872 0063195 110.9535 249.8494 15.53497820391309 LO-87 1 41557U 16033B 23152.87045892 .00061428 00000-0 82427-3 0 9998 2 41557 97.3878 260.1716 0007924 188.9812 171.1303 15.57714266391247 NuSat2 1 41558U 16033C 23152.56867505 .00073320 00000-0 86341-3 0 9991 2 41558 97.4157 267.8189 0007757 184.8765 175.2418 15.61127390391538 Lapan A3 1 41603U 16040E 23152.54739926 .00002701 00000-0 11965-3 0 9998 2 41603 97.1666 178.8343 0013124 20.0378 340.1372 15.22378761385116 Pratham 1 41783U 16059A 23152.09743086 .00000720 00000-0 14518-3 0 9995 2 41783 97.8694 183.9274 0033859 149.4240 210.8946 14.63932055356624 TY-1 1 41844U 16066D 23152.85574393 .00055434 00000-0 91431-3 0 9999 2 41844 97.3676 171.7499 0011319 113.7031 246.5411 15.52043528365305 CAS-2T 1 41847U 16066G 23152.18426564 .00000852 00000-0 13726-3 0 9999 2 41847 98.5045 220.8118 0358818 245.3836 110.9581 14.39644033344501 EO-88 1 42017U 17008BX 23152.15941638 .00201482 00000-0 13761-2 0 9997 2 42017 97.2103 222.8453 0002760 175.9015 184.2273 15.74221670350940 CAS-4B 1 42759U 17034B 23152.38967572 .00006950 00000-0 35449-3 0 9990 2 42759 43.0144 203.4925 0010888 353.2795 6.7905 15.17181777329230 CAS-4A 1 42761U 17034D 23152.40583533 .00007548 00000-0 38379-3 0 9996 2 42761 43.0138 201.9340 0011566 355.2969 4.7769 15.17188768329232 NIUSat 1 42766U 17036B 23152.33043296 .00026237 00000-0 68847-3 0 9991 2 42766 97.1575 184.0052 0011857 151.4834 208.7063 15.38550806330170 Aalto 1 1 42775U 17036L 23152.03634051 .00017028 00000-0 50316-3 0 9993 2 42775 97.1533 182.5532 0011278 154.1955 205.9854 15.34943228330044 URSA MAIOR 1 42776U 17036M 23152.31436441 .00021745 00000-0 60520-3 0 9997 2 42776 97.1543 184.1139 0011064 149.7012 210.4875 15.36773889330156 Max Valier Sat 1 42778U 17036P 23152.10131379 .00021298 00000-0 56794-3 0 9999 2 42778 97.1565 187.3323 0009984 148.7803 211.4037 15.38116429330252 Pegasus 1 42784U 17036V 23152.10359392 .00038569 00000-0 78865-3 0 9995 2 42784 97.1484 189.7292 0008995 144.3886 215.7965 15.45995901330495 SUCHAI 1 1 42788U 17036Z 23152.09390409 .00067865 00000-0 10012-2 0 9991 2 42788 97.1462 193.2662 0008326 143.0725 217.1104 15.55114973330799 SKCUBE 1 42789U 17036AA 23152.11444145 .00049598 00000-0 87371-3 0 9998 2 42789 97.1470 191.8199 0008531 141.0874 219.0993 15.50244359330625 VZLUSAT 1 1 42790U 17036AB 23152.35697876 .01594516 17668-2 20363-2 0 9990 2 42790 97.1300 200.8481 0010088 228.4935 131.5483 16.07689958331222 VENTA 1 1 42791U 17036AC 23152.05966614 .00038564 00000-0 78164-3 0 9995 2 42791 97.1498 190.8636 0008459 141.3445 218.8412 15.46258667330545 Robusta 1B 1 42792U 17036AD 23152.04680281 .00057768 00000-0 90927-3 0 9996 2 42792 97.1439 192.9283 0007864 139.3207 220.8635 15.53374727330706 D-SAT 1 42794U 17036AF 23152.54823531 .00005455 00000-0 43346-3 0 9999 2 42794 97.4641 145.3361 0116685 355.4573 4.5579 14.95584147323625 TechnoSat 1 42829U 17042E 23152.51267555 .00002432 00000-0 23545-3 0 9991 2 42829 97.3903 350.8945 0011720 279.5422 80.4474 14.93551634320153 AO-91 1 43017U 17073E 23152.22749516 .00007466 00000-0 52057-3 0 9997 2 43017 97.6335 37.1991 0235514 121.7824 240.6569 14.85855226298811 PICSAT 1 43132U 18004X 23152.17206756 .00074443 00000-0 10655-2 0 9994 2 43132 97.3299 234.9612 0006143 177.9850 182.1430 15.55933600300056 AO-92 1 43137U 18004AC 23152.20660086 .00035564 00000-0 75384-3 0 9995 2 43137 97.3294 231.2380 0006367 184.0128 176.1071 15.44978708299847 TianYi 2 1 43155U 18008A 23152.90051887 .00018765 00000-0 75047-3 0 9999 2 43155 97.2997 205.7916 0012510 10.9381 349.2127 15.25068941296325 Zhou Enlai 1 43156U 18008B 23152.85036838 .00021123 00000-0 83194-3 0 9997 2 43156 97.3043 205.8351 0010135 13.5030 346.6478 15.25582314296240 TianYi 6 1 43158U 18008D 23152.88760509 .00015901 00000-0 68608-3 0 9991 2 43158 97.3048 202.8804 0010397 17.4766 342.6826 15.22562910296099 S-Net D 1 43186U 18014G 23152.31059027 .00002597 00000-0 21116-3 0 9993 2 43186 97.6354 56.4147 0014165 210.1624 149.8786 15.00372240291175 S-Net B 1 43187U 18014H 23152.31159636 .00002626 00000-0 21349-3 0 9992 2 43187 97.6342 56.3460 0014372 208.6795 151.3640 15.00361478291179 S-Net A 1 43188U 18014J 23152.31174564 .00002612 00000-0 21240-3 0 9995 2 43188 97.6349 56.4327 0014366 208.8037 151.2395 15.00364215291172 S-Net C 1 43189U 18014K 23152.31382074 .00002696 00000-0 21913-3 0 9992 2 43189 97.6330 56.3267 0014712 205.3751 154.6752 15.00347249289725 Shaonian Xing 1 43199U 18015H 23152.50384064 .00149180 00000-0 11152-2 0 9999 2 43199 97.5424 310.9134 0009084 222.0671 137.9895 15.72195145297359 CubeBel-1 1 43666U 18083E 23152.51908465 .00030061 00000-0 82708-3 0 9994 2 43666 97.3813 184.0401 0010844 166.6437 193.5096 15.37073184254795 Changshagaoxin 1 43669U 18083H 23152.51911266 .00023672 00000-0 72438-3 0 9999 2 43669 97.3801 178.7533 0008556 164.0888 196.0625 15.33800064254540 Ten-Koh 1 43677U 18084G 23152.33144782 .00002968 00000-0 29108-3 0 9991 2 43677 98.0107 291.9322 0014867 195.8539 164.2216 14.92949590249692 PO-101 1 43678U 18084H 23152.77819112 .00001204 00000-0 12040-3 0 9995 2 43678 98.0209 296.4396 0008948 205.3380 154.7402 14.93378672249960 QO-100 1 43700U 18090A 23152.36438293 .00000165 00000-0 00000-0 0 9995 2 43700 0.0148 301.0034 0001833 163.1219 302.4755 1.00274724 16525 Reaktor Hello World 1 43743U 18096AA 23152.83717803 .00061141 00000-0 85653-3 0 9998 2 43743 97.3181 239.4432 0010046 227.2600 132.7810 15.56531918251788 MinXSS-2 1 43758U 18099A 23152.13096603 .00006651 00000-0 51874-3 0 9991 2 43758 97.5993 216.5610 0017017 175.6636 184.4739 15.01379870245336 AO-95 1 43770U 18099N 23152.14617122 .00004207 00000-0 34523-3 0 9998 2 43770 97.5747 214.1199 0012073 182.2584 177.8587 14.99690875245206 RANGE-B 1 43772U 18099Q 23152.16927979 .00006856 00000-0 53577-3 0 9998 2 43772 97.5802 216.8539 0009328 144.3747 215.8102 15.01372482245263 RANGE-A 1 43773U 18099R 23152.10852948 .00003540 00000-0 30122-3 0 9994 2 43773 97.5641 212.2109 0013592 165.0128 195.1501 14.98370302245154 MOVE-II 1 43780U 18099Y 23152.39830729 .00010667 00000-0 78660-3 0 9993 2 43780 97.5714 216.7601 0009104 200.8584 159.2271 15.03441171245365 SNUSat 2 1 43782U 18099AA 23152.17696568 .00004846 00000-0 39790-3 0 9995 2 43782 97.5719 214.6584 0013754 162.4573 197.7129 14.99579035245236 SnugLite 1 43784U 18099AC 23152.40053925 .00005566 00000-0 44922-3 0 9990 2 43784 97.5765 214.5351 0011156 165.1437 195.0116 15.00202555245301 ITASat 1 1 43786U 18099AE 23152.41196061 .00003625 00000-0 30035-3 0 9996 2 43786 97.5789 215.4106 0013271 168.7566 191.3957 14.99393591245286 EAGLET 1 1 43790U 18099AJ 23152.18218444 .00003574 00000-0 29932-3 0 9992 2 43790 97.5747 215.6632 0013593 172.3622 187.7811 14.98982693244982 ESEO 1 43792U 18099AL 23152.39227417 .00002512 00000-0 21964-3 0 9995 2 43792 97.5709 214.3876 0013105 169.7759 190.3732 14.97579518245023 CSIM 1 43793U 18099AM 23152.89750128 .00009458 00000-0 68815-3 0 9993 2 43793 97.5780 218.5519 0016867 171.5113 188.6401 15.03901451245280 Astrocast 0.1 1 43798U 18099AS 23152.88992627 .00008362 00000-0 63493-3 0 9999 2 43798 97.5860 217.9139 0013794 148.3131 211.8927 15.02363681245472 JO-97 1 43803U 18099AX 23152.11338241 .00005494 00000-0 43805-3 0 9996 2 43803 97.5697 215.0954 0013570 144.5632 215.6497 15.00653502245282 Suomi 100 1 43804U 18099AY 23152.10617512 .00004862 00000-0 39106-3 0 9994 2 43804 97.5676 214.9071 0017742 162.3789 197.8054 15.00317742245287 Al Farabi 2 1 43805U 18099AZ 23152.39993410 .00008349 00000-0 64064-3 0 9995 2 43805 97.5579 216.1973 0012395 153.6990 206.4867 15.01975981245387 CHOMPTT 1 43855U 18104G 23152.12224239 .00020316 00000-0 51190-3 0 9998 2 43855 85.0301 177.0790 0012869 34.2340 325.9738 15.39672214248109 ISAT 1 43879U 18111D 23152.30966574 .00005448 00000-0 41721-3 0 9995 2 43879 97.6460 56.9942 0013181 207.4492 152.6038 15.02209385239938 UWE-4 1 43880U 18111E 23152.30263244 .00005475 00000-0 42107-3 0 9990 2 43880 97.6324 57.7358 0016828 224.3484 135.6393 15.02003776239985 Sparrow 1 43881U 18111F 23152.32078202 .00006060 00000-0 45950-3 0 9991 2 43881 97.6529 58.3271 0008451 256.1478 103.8806 15.02583476240004 Lume 1 1 43908U 18111AJ 23152.22280256 .00033320 00000-0 69277-3 0 9991 2 43908 97.1430 35.7267 0010503 252.3663 107.6440 15.45521020246926 FO-99 1 43937U 19003F 23152.82089184 .00054591 00000-0 92435-3 0 9992 2 43937 97.0865 180.2345 0009942 340.1345 19.9520 15.51326237243662 AstroCast 0.2 1 44083U 19018F 23152.40642353 .00050407 00000-0 93489-3 0 9990 2 44083 97.2672 212.0711 0002667 291.4411 68.6555 15.48805836231976 AISTechSat 3 1 44103U 19018AB 23152.49951869 .00025109 00000-0 62333-3 0 9992 2 44103 97.2545 211.0738 0007282 336.7028 23.3887 15.40305397232090 AISat 1 1 44104U 19018AC 23152.22038924 .00018339 00000-0 36337-3 0 9994 2 44104 97.3735 243.2802 0039636 317.1743 42.6420 15.46233261233259 Prox-1 1 44339U 19036A 23152.36886907 .00005957 00000-0 11911-2 0 9993 2 44339 23.9991 145.0896 0010479 92.3285 267.8407 14.59250290209373 Move-IIb 1 44398U 19038N 23152.43580918 .00049796 00000-0 12815-2 0 9994 2 44398 97.6585 134.5189 0012696 1.5396 358.5885 15.39003739216246 SONATE 1 44400U 19038Q 23152.18073532 .00010305 00000-0 46523-3 0 9997 2 44400 97.6823 129.5016 0021017 13.8647 346.3160 15.20984686215801 BeeSat 9 1 44412U 19038AC 23152.18363455 .00024746 00000-0 86990-3 0 9992 2 44412 97.6727 132.3057 0015546 12.1312 348.0299 15.29244827215712 JAISAT-1 1 44419U 19038F 23152.52922140 .00023107 00000-0 80453-3 0 9997 2 44419 97.6726 133.7380 0014525 8.0463 352.1006 15.29587848216142 Taurus 1 1 44530U 19059C 23152.54966175 .00004344 00000-0 11324-2 0 9994 2 44530 98.5538 260.1113 0014471 138.7210 221.5080 14.49969876196376 Duchifat 3 1 44854U 19089C 23152.42853455 .00006703 00000-0 45547-3 0 9995 2 44854 36.9605 185.4507 0009552 194.4447 165.6024 15.06014741190520 OPS-SAT 1 44878U 19092F 23152.47392815 .00023589 00000-0 72112-3 0 9997 2 44878 97.4753 341.0295 0009617 184.0035 176.1132 15.33825621191385 TO-108 1 44881U 19093C 23152.43567192 .00000977 00000-0 12806-3 0 9990 2 44881 97.8616 231.1548 0015958 126.6202 233.6481 14.82502302186464 FloripaSat 1 1 44885U 19093G 23152.45428726 .00004047 00000-0 47186-3 0 9996 2 44885 97.8683 233.7914 0014990 129.1138 231.1413 14.85693755186619 RS-44 1 44909U 19096E 23152.27317996 .00000034 00000-0 97725-4 0 9999 2 44909 82.5223 358.5229 0216652 223.9917 134.3765 12.79720858160127 BY70-2 1 45857U 20042B 23152.83350574 .00019304 00000-0 20058-2 0 9999 2 45857 97.9260 232.6853 0009387 68.5758 291.6460 14.89913631157252 UPMSat 2 1 46276U 20061E 23152.18990973 .00008636 00000-0 36786-3 0 9999 2 46276 97.3475 220.1064 0002390 71.6393 288.5104 15.23201407151853 AmicalSat 1 46287U 20061R 23152.14436803 .00012893 00000-0 60643-3 0 9993 2 46287 97.4009 218.9581 0003466 130.5589 229.5948 15.19692349151276 SALSAT 1 46495U 20068K 23152.39126359 .00004417 00000-0 29373-3 0 9998 2 46495 97.7697 100.2293 0015886 167.2316 192.9316 15.07597903146699 CAPE 3 1 47309U 21002A 23152.27656352 .00032743 00000-0 81010-3 0 9999 2 47309 60.6753 121.3429 0014642 176.5073 183.6127 15.40179235131831 AO-109 1 47311U 21002C 23152.32187611 .00026388 00000-0 69873-3 0 9996 2 47311 60.6793 119.4944 0014718 166.8545 193.2935 15.38197906131856 MiTEE 1 1 47314U 21002F 23152.22951959 .00657079 18020-3 20723-2 0 9993 2 47314 60.6593 84.2191 0002989 192.3667 167.7379 15.90962178132450 ExoCube 2 1 47319U 21002L 23152.37879767 .00024556 00000-0 66688-3 0 9995 2 47319 60.6776 121.3662 0014941 171.5326 188.6023 15.37447959131785 UVSQ-SAT 1 47438U 21006AB 23152.40598829 .00015617 00000-0 64711-3 0 9995 2 47438 97.3856 209.7442 0011504 133.8210 226.3980 15.23928697130245 YUSAT 1 1 47439U 21006AC 23152.12884560 .00019939 00000-0 76944-3 0 9997 2 47439 97.3864 210.1670 0010930 133.6670 226.5476 15.26268082130244 SOMP 2b 1 47445U 21006AJ 23152.38699856 .00015067 00000-0 63802-3 0 9991 2 47445 97.3823 209.0017 0011212 138.3247 221.8847 15.23206004130214 IDEASSat 1 47458U 21006AX 23152.88808837 .00013890 00000-0 59817-3 0 9994 2 47458 97.3921 210.2684 0010648 135.4337 224.7758 15.22658146130277 CubeSX-Sirius-HSE 1 47951U 21022V 23152.40503133 .00009929 00000-0 56111-3 0 9991 2 47951 97.4995 50.0193 0019932 34.5219 325.7302 15.13127750120644 CubeSX-HSE 1 47952U 21022W 23152.44505309 .00009902 00000-0 55855-3 0 9998 2 47952 97.4998 50.1046 0019896 34.2664 325.9846 15.13195934120651 KSU-Cubesat 1 47954U 21022Y 23152.17533895 .00010646 00000-0 58682-3 0 9999 2 47954 97.5005 50.1931 0019325 34.3336 325.9140 15.14011997120351 GRBAlpha 1 47959U 21022AD 23152.49865384 .00009012 00000-0 50767-3 0 9991 2 47959 97.5001 50.2373 0019739 34.4958 325.7550 15.13273496119481 Orbicraft-Zorkiy 1 47960U 21022AE 23152.52907521 .00011061 00000-0 61076-3 0 9999 2 47960 97.5030 50.6717 0019268 33.1204 327.1230 15.13938451120198 STECCO 1 47962U 21022AG 23152.06718604 .00017904 00000-0 84121-3 0 9990 2 47962 97.4999 52.4571 0013741 28.0511 332.1461 15.19581922119592 DO-111 1 47963U 21022AH 23152.39963075 .00211978 00000-0 30082-2 0 9994 2 47963 97.4984 60.1896 0006168 57.1183 303.0664 15.55676758120132 MO-110 1 47964U 21022AJ 23152.38854005 .00020208 00000-0 92627-3 0 9994 2 47964 97.5013 53.3520 0015522 21.5584 338.6301 15.20385660119679 FEES 1 48082U 21022AL 23152.27330319 .00036137 00000-0 13880-2 0 9992 2 48082 97.5005 54.3404 0010959 21.1363 339.0326 15.26300342119430 TUBIN 1 48900U 21059X 23152.54606734 .00007617 00000-0 36507-3 0 9991 2 48900 97.5974 286.0509 0008397 343.7867 16.3097 15.19179225106802 IT-SPINS 1 49017U 21013G 23152.27651350 .00027334 00000-0 64873-3 0 9990 2 49017 51.5902 156.6780 0005660 290.9690 69.0689 15.41483943107255 LEDSAT 1 49069U 21073D 23152.19262290 .00008705 00000-0 48098-3 0 9997 2 49069 97.4835 223.3402 0024743 172.2369 187.9251 15.13879077 98482 CUTE 1 49263U 21088D 23152.16884920 .00008692 00000-0 56168-3 0 9998 2 49263 97.5454 218.2470 0016313 321.3190 38.6869 15.08353312 91873 TeikyoSat 4 1 49396U 21102B 23152.14507334 .00001845 00000-0 14416-3 0 9994 2 49396 97.5172 204.6290 0016600 134.6493 225.6089 15.02187590 85362 Z-Sat 1 49399U 21102E 23152.45857777 .00002755 00000-0 19862-3 0 9991 2 49399 97.4853 206.0389 0023689 121.2748 239.0802 15.04734521 85529 KOSEN 1 1 49402U 21102H 23152.88301972 .00004892 00000-0 33366-3 0 9993 2 49402 97.4790 206.9337 0022681 109.6063 250.7616 15.06467067 85654 HO-113 1 50466U 21131B 23152.45439123 .00000558 00000-0 19554-3 0 9998 2 50466 98.5516 234.0481 0004488 171.0063 189.1206 14.38902071 75094 Tevel-3 1 50988U 22002E 23152.42925773 .00018640 00000-0 75926-3 0 9999 2 50988 97.4345 219.5082 0006128 287.3857 72.6711 15.24513102 76368 Tevel-8 1 50989U 22002F 23152.38168714 .00019328 00000-0 78869-3 0 9992 2 50989 97.4361 219.5184 0006127 286.1946 73.8617 15.24446353 76355 Tevel-5 1 50998U 22002Q 23152.84146497 .00019356 00000-0 76911-3 0 9994 2 50998 97.4338 220.2828 0007318 278.5782 81.4626 15.25330010 76458 Tevel-6 1 50999U 22002R 23152.44637655 .00019871 00000-0 78983-3 0 9995 2 50999 97.4337 219.8853 0007328 280.0032 80.0379 15.25314320 76396 Tevel-1 1 51013U 22002AF 23152.83241880 .00018456 00000-0 75248-3 0 9996 2 51013 97.4339 219.8535 0006049 284.8515 75.2052 15.24483722 76420 Grizu-263a 1 51025U 22002AT 23152.40790354 .00082356 00000-0 18556-2 0 9995 2 51025 97.4489 224.5822 0007012 256.1100 103.9368 15.42941937 76622 NO-116 1 51031U 22002AZ 23151.98271198 .00031472 00000-0 10320-2 0 9998 2 51031 97.4466 221.8090 0008004 278.5462 81.4872 15.31535482 76422 IRIS-A 1 51044U 22002BN 23152.13428337 .00008874 00000-0 42570-3 0 9992 2 51044 97.4355 217.8385 0006667 298.8967 61.1598 15.19097239 76220 Tevel-7 1 51062U 22002CG 23152.84233207 .00018862 00000-0 76900-3 0 9992 2 51062 97.4356 219.9492 0006118 283.5806 76.4750 15.24480345 76428 Tevel-4 1 51063U 22002CH 23152.84790067 .00018825 00000-0 76863-3 0 9992 2 51063 97.4357 219.9394 0006122 283.5696 76.4859 15.24430935 76423 Tevel-2 1 51069U 22002CP 23152.43110594 .00018658 00000-0 75996-3 0 9994 2 51069 97.4341 219.4820 0006086 286.7322 73.3247 15.24514070 76364 DELFI-PQ 1 51074U 22002CU 23152.42382758 .00042235 00000-0 12482-2 0 9990 2 51074 97.4603 224.5248 0007848 305.5441 54.5070 15.34786430 76582 SO-115 1 51080U 22002DA 23152.40842943 .00023005 00000-0 84039-3 0 9994 2 51080 97.4619 223.1099 0008955 317.6558 42.3989 15.28074846 76485 SO-114 1 51081U 22002DB 23151.93965318 .00021284 00000-0 77468-3 0 9999 2 51081 97.4610 222.6106 0009205 319.0689 40.9858 15.28209521 76412 OreSat0 1 52017U 22026K 23152.22497092 .00017898 00000-0 72758-3 0 9990 2 52017 97.5084 154.5758 0024347 136.5252 223.7911 15.24329386 67112 Planetum 1 1 52738U 22057G 23152.28460503 .00013702 00000-0 64034-3 0 9995 2 52738 97.5364 268.2574 0007549 53.1594 307.0332 15.19887913 56244 Foresail-1 1 52766U 22057AL 23152.38622525 .00009245 00000-0 44197-3 0 9996 2 52766 97.5483 269.2475 0012454 31.6575 328.5405 15.19162526 56288 SNUGLITE 2 1 52899U 22065F 23152.38004251 .00001093 00000-0 24099-3 0 9994 2 52899 98.0671 297.6637 0006676 264.6347 95.4092 14.59268108 48558 CTIM 1 52950U 22074G 23152.25960466 .00045694 00000-0 10615-2 0 9990 2 52950 44.9979 88.2292 0011817 128.5829 231.6119 15.41627798 51143 IO-117 1 53106U 22080B 23149.84195747 -.00000003 00000-0 00000+0 0 9994 2 53106 70.1621 326.0976 0008371 189.0727 170.9782 6.42557054 20576 AstroBioCubeSat 1 53107U 22080C 23025.30817895 -.00000003 00000-0 00000-0 0 9995 2 53107 70.1710 9.4734 0013545 210.3158 149.6718 6.42110537 12478 SelfieSat 1 53951U 22057BC 23152.33375137 .00017348 00000-0 77335-3 0 9995 2 53951 97.5412 268.8941 0009076 44.0594 316.1363 15.21446195 56270 FO-118 1 54684U 22167C 23152.80755430 .00011783 00000-0 65621-3 0 9993 2 54684 97.5598 290.4966 0013753 33.1882 327.0209 15.13697152 26351 KILICSAT 1 56181U 23054D 23152.40752857 .00011853 00000-0 51681-3 0 9998 2 56181 97.4071 47.5253 0011787 91.5862 268.6725 15.22262673 7775 SSS-2B 1 56184U 23054G 23152.40372852 .00012383 00000-0 53735-3 0 9995 2 56184 97.4133 47.5692 0013160 91.6416 268.6328 15.22400408 7776 CIRBE 1 56188U 23054L 23152.26245017 .00014821 00000-0 63463-3 0 9993 2 56188 97.4086 47.4227 0012042 86.7398 273.5216 15.22824136 7759 INSPIRE-Sat 7 1 56211U 23054AK 23152.28339616 .00017202 00000-0 70154-3 0 9992 2 56211 97.4112 47.5644 0016806 72.0086 288.2981 15.24374583 7765 RoseyCubesat 1 1 56212U 23054AL 23152.21298994 .00018003 00000-0 72954-3 0 9999 2 56212 97.4118 47.5093 0017203 71.6848 288.6259 15.24572153 7757 ARKSAT 1 1 56311U 98067VC 23151.93402703 .00054742 00000-0 79895-3 0 9999 2 56311 51.6394 48.2852 0005795 49.8677 310.2821 15.55107676 5838 AuroraSat 1 56312U 98067VD 23151.99581941 .00069173 00000-0 99084-3 0 9994 2 56312 51.6391 47.9459 0005154 50.0597 310.0847 15.55521581 5874 Ex-Alta 2 1 56313U 98067VE 23151.99871548 .00056928 00000-0 82990-3 0 9992 2 56313 51.6390 47.9654 0005529 49.2725 310.8745 15.55123563 5862 LightCube 1 56314U 98067VF 23152.25498770 .00071196 00000-0 10217-2 0 9991 2 56314 51.6392 46.6760 0005106 28.5693 331.5578 15.55459123 5930 NEUDOSE 1 56315U 98067VG 23152.01446869 .00041876 00000-0 63958-3 0 9991 2 56315 51.6390 48.0699 0006411 29.8915 330.2440 15.53976685 5846 YukonSat 1 56316U 98067VH 23152.00876585 .00050941 00000-0 76100-3 0 9999 2 56316 51.6393 48.0318 0005949 28.7548 331.3770 15.54500401 5863 /EX